Retour au catalogue

ONEWEB-0600

ActifCommunicationsPO
NORAD 54664·PAYLOAD·🇬🇧 United Kingdom

Lancé Dec 8, 2022 depuis Cape Canaveral Space Force Station

Loading…

Prochains Passages (prochaines 24 heures)

TLE

FraisSource: CelesTrak SupGP

Époque: Sep 14, 2026, 19:49 UTC

1 54664C 22166Y   26257.82587222  .00002917  00000+0  70705-2 0  2576
2 54664  87.9280 226.1337 0002308  80.2671 317.2379 13.21825752    11

Suivez ONEWEB-0600 en temps réel avec AllMySat

Download on the App Store